This is the latest recevied weather packets stored in our database for station/object G7UKK-10. If no packets are shown the sender has not sent any weather packets the latest 10 day(s).
| Time | Temp. | Humidity | Pressure | Rain* | Wind** | Luminosity | Snow |
|---|---|---|---|---|---|---|---|
| 1777691417 | 10.56° C | 88% | 1018.4 hPa | 0 mm | - | - | - |
| 1777690517 | 10.56° C | 88% | 1018.6 hPa | 0 mm | - | - | - |
| 1777689617 | 10° C | 89% | 1018.8 hPa | 0 mm | - | - | - |
| 1777688717 | 10° C | 89% | 1018.8 hPa | 0 mm | - | - | - |
| 1777687817 | 10° C | 89% | 1018.6 hPa | 0 mm | - | - | - |
| 1777686917 | 10° C | 88% | 1018.8 hPa | 0 mm | - | - | - |
| 1777686017 | 10.56° C | 87% | 1019.1 hPa | 0 mm | - | - | - |
| 1777685117 | 10.56° C | 87% | 1019.1 hPa | 0 mm | - | - | - |
| 1777684217 | 10.56° C | 86% | 1019 hPa | 0 mm | - | - | - |
| 1777683317 | 11.11° C | 86% | 1019.5 hPa | 0 mm | - | - | - |
| 1777682417 | 11.67° C | 86% | 1019.3 hPa | 0 mm | - | - | - |
| 1777681517 | 11.67° C | 86% | 1019.5 hPa | 0 mm | - | - | - |
| 1777680617 | 11.67° C | 86% | 1019.5 hPa | 0 mm | - | - | - |
| 1777679717 | 11.67° C | 85% | 1019.7 hPa | 0 mm | - | - | - |
| 1777678817 | 11.67° C | 86% | 1019.9 hPa | 0 mm | - | - | - |
| 1777677917 | 11.67° C | 87% | 1019.7 hPa | 0 mm | - | - | - |
| 1777677017 | 12.22° C | 88% | 1020.1 hPa | 0 mm | - | - | - |
| 1777676117 | 12.22° C | 88% | 1019.7 hPa | 0 mm | - | - | - |
| 1777675217 | 12.22° C | 88% | 1019.6 hPa | 0 mm | - | - | - |
| 1777674318 | 12.22° C | 87% | 1019.3 hPa | 0 mm | - | - | - |
| 1777673417 | 12.22° C | 87% | 1019.4 hPa | 0 mm | - | - | - |
| 1777672517 | 12.22° C | 87% | 1019.6 hPa | 0 mm | - | - | - |
| 1777671617 | 12.22° C | 86% | 1019.5 hPa | 0 mm | - | - | - |
| 1777670717 | 12.78° C | 86% | 1019.3 hPa | 0 mm | - | - | - |
| 1777669817 | 12.78° C | 84% | 1019.3 hPa | 0 mm | - | - | - |
* Rain latest hour (hover to see other rain measurements)
** Current wind speed in m/s (hover to see current wind gust speed)